Regional Weather Roundup
Issued by NWS

Home | Current Version | Previous Version | Text Only | Print | Product List | Glossary Off
Versions: 1 2 3 4 5 6 7 8 9 10 11 12 13 14 15 16 17 18 19 20 21 22 23 24 25 26 27 28 29 30 31 32 33 34 35 36 37 38 39 40 41 42 43 44 45 46 47 48 49 50

000
ASUS43 KDTX 302201
RWRMI
MICHIGAN HOURLY REGIONAL WEATHER ROUNDUP
NATIONAL WEATHER SERVICE DETROIT/PONTIAC MI
600 PM EDT SAT APR 30 2016

NOTE: "FAIR" INDICATES FEW OR NO CLOUDS BELOW 12,000 FEET WITH NO
SIGNIFICANT WEATHER AND/OR OBSTRUCTION TO VISIBILITY.

MIZ047>049-052>055-059>063-066>070-074>076-081>083-302300-
SOUTHEAST LOWER MICHIGAN

CITY           SKY/WX    TMP DP  RH WIND       PRES   REMARKS
ADRIAN         LGT RAIN  47  45  93 E13       30.03R FOG
ALMA           LGT RAIN  52  36  54 MISG      30.06S
ANN ARBOR      LGT RAIN  49  47  93 E9        30.03F FOG
BAD AXE        CLOUDY    52  30  44 NE10      30.10F
CARO           PTSUNNY   56  39  52 E9        30.06F
DETROIT CITY   LGT RAIN  49  45  86 E7        30.06F FOG
DETROIT        LGT RAIN  48  45  89 E8        30.06S FOG
FLINT          LGT RAIN  56  44  64 SE6       30.04F
GROSSE ILE     LGT RAIN  46  45  93 E6        30.04F
HILLSDALE      LGT RAIN  47  47  97 E12       29.99F
HOWELL         LGT RAIN  49  45  86 E6        30.03F

CITY           SKY/WX    TMP DP  RH WIND       PRES   REMARKS
JACKSON        LGT RAIN  49  46  90 E9        30.01F FOG
LAMBERTVILLE   LGT RAIN  48  46  92 E7        30.04R
LANSING        LGT RAIN  50  44  80 E9        30.04F
LAPEER         CLOUDY    56  39  52 E6        30.05F
MASON          RAIN      49  45  85 E5        30.03S
MONROE         RAIN      46  46  97 E10G17    30.03F
MT. CLEMENS    LGT RAIN  50  49  96 SE6       30.06F FOG
PONTIAC        LGT RAIN  49  45  86 E9        30.04F
PORT HOPE        N/A     44  36  73 NE3       30.11S
PORT HURON     CLOUDY    48  34  57 N8        30.09S
TRI CITIES     CLOUDY    54  38  54 NE15      30.07F
MIDLAND        FAIR      54  32  43 NE7       30.07S
TROY           LGT RAIN  49  47  90 E7        30.08F
SAGINAW HB     CLOUDY    57  36  44 E9        30.05F
$$
MIZ043>046-050>051-056>058-064>065-071>073-077>080-302300-
SOUTHWEST LOWER MICHIGAN

CITY           SKY/WX    TMP DP  RH WIND       PRES   REMARKS
BATTLE CREEK   LGT RAIN  49  45  86 E10       30.00F
BENTON HARBOR  RAIN      48  44  86 E12       29.95S FOG
BIG RAPIDS     CLOUDY    55  29  38 E13G20    30.04F
COLDWATER      LGT RAIN  48  45  91 E7        29.99S
FREMONT        LGT RAIN  51  37  58 E7        30.02F
HOLLAND        LGT RAIN  49  44  83 E10G20    30.00F
GRAND RAPIDS   LGT RAIN  51  43  74 E9        30.02F
IONIA          LGT RAIN  50  42  74 E9        30.02S
KALAMAZOO      LGT RAIN  49  44  83 E10       29.99F
LUDINGTON      CLOUDY    56  35  44 E8        30.03F
MARSHALL       LGT RAIN  49  46  90 E7        29.99F
MOUNT PLEASANT CLOUDY    55  31  39 E13G18    30.06S
MUSKEGON       LGT RAIN  51  41  68 NE10      30.01F
$$
MIZ016>042-302300-
NORTHERN LOWER MICHIGAN

CITY           SKY/WX    TMP DP  RH WIND       PRES   REMARKS
ALPENA         CLOUDY    52  30  43 E7        30.13F
BEAVER ISLAND  PTSUNNY   54  26  33 E13       30.12F
BELLAIRE       CLOUDY    62  28  27 NE7       30.05S
CADILLAC       CLOUDY    55  32  42 SE10      30.05F
CHARLEVOIX     CLOUDY    56  27  32 NE13G23   30.12S
FRANKFORT      CLOUDY    53  32  45 NE6       30.06F
GAYLORD        CLOUDY    57  27  31 NE13G22   30.08S
HARBOR SPRINGS CLOUDY    55  23  28 NE16G24   30.11S
HOUGHTON LAKE  CLOUDY    55  30  38 SE10      30.08S
MANISTEE       CLOUDY    57  32  38 E6G17     30.04F
OSCODA         PTSUNNY   51  27  39 NE7       30.12S
PELLSTON       PTSUNNY   57  23  26 E13       30.12F
ROGERS CITY    CLOUDY    42  33  70 NE5       30.15F
TRAVERSE CITY  CLOUDY    55  31  39 VRB5      30.05F
$$
MIZ007>008-015-302300-
EASTERN UPPER MICHIGAN

CITY           SKY/WX    TMP DP  RH WIND       PRES   REMARKS
KINROSS          N/A     57  23  26 E7        30.13F
MACKINAC ISLAN PTSUNNY   52  21  29 SE6       30.14F
NEWBERRY       CLOUDY    50  33  51 N13       30.14F
S. S. MARIE    MOSUNNY   57  33  40 W8        30.14R
MUNISING         N/A     43  35  73 N12       30.18F
$$
MIZ004>006-011>014-085-302300-
CENTRAL UPPER MICHIGAN

CITY           SKY/WX    TMP DP  RH WIND       PRES   REMARKS
MANISTIQUE     CLOUDY    55  25  31 E7        30.13S
ESCANABA       CLOUDY    54  30  40 NE15G21   30.12F
MENOMINEE      CLOUDY    52  28  40 NE13      30.08F
SAWYER-GWINN   SUNNY     45  32  61 NE15G23   30.17F
$$
MIZ001>003-009>011-084-302300-
WESTERN UPPER MICHIGAN

CITY           SKY/WX    TMP DP  RH WIND       PRES   REMARKS
IRON MOUNTAIN  MOSUNNY   54  30  40 NE10G20   30.11F
HOUGHTON       CLOUDY    46  33  60 E10       30.22S
COPPER HARBOR    N/A     43  36  76 N5        30.24F
IRONWOOD         N/A     50  34  53 NE10G20   30.15S
$$

ABBREVIATIONS USED IN REMARKS
   TC - TEMPERATURE IN CELSIUS
  WCI - WIND CHILL INDEX
   HX - HEAT INDEX
  VSB - VISIBILITY





USA.gov is the U.S. government's official web portal to all federal, state and local government web resources and services.